Regional Weather Roundup
Issued by NWS State College, PA

Home | Current Version | Previous Version | Text Only | Print | Product List | Glossary Off
Versions: 1 2 3 4 5 6 7 8 9 10 11 12 13 14 15 16 17 18 19 20 21 22 23 24 25 26 27 28 29 30 31 32 33 34 35 36 37 38 39 40 41 42 43 44 45 46 47 48 49 50

000
ASUS41 KCTP 290903
RWRCTP

REGIONAL WEATHER ROUNDUP
NATIONAL WEATHER SERVICE STATE COLLEGE PA
500 AM EDT THU SEP 29 2016

Note: "fair" indicates few or no clouds below 12,000 feet with no
significant weather and/or obstructions to visibility.

* = STATION THAT DOES NOT REPORT PRECIPITATION /E.G. RAIN...SNOW...ETC/
    THUNDER OR FOG.

PAZ002>004-007>009-013>016-020>023-029>032-291000-
WESTERN PENNSYLVANIA

CITY           SKY/WX    TMP DP  RH WIND       PRES   REMARKS
ERIE           MOCLDY    65  56  72 E6        30.07R
MEADVILLE      CLOUDY    62  55  77 E13G21    30.07R
FRANKLIN*        N/A     61  54  77 E16       30.09R
NEW CASTLE     LGT RAIN  62  60  93 E9        30.04S
BEAVER COUNTY  NOT AVBL
BUTLER*        CLOUDY    61  57  88 E15       30.06S
PITTSBURGH INT LGT RAIN  56  56 100 VRB3      30.03R FOG
PITTSBURGH     LGT RAIN  59  56  89 SW7       30.03R FOG
INDIANA*       CLOUDY    59  59 100 E8G15     30.11R FOG
LATROBE        LGT RAIN  61  59  94 E9        30.04R
WASHINGTON CO* CLOUDY    55  52  88 CALM      30.03S
$$

PAZ004>006-010>012-017>019-024>028-033>037-041-042-045-046-049>053-291000-
CENTRAL PENNSYLVANIA

CITY           SKY/WX    TMP DP  RH WIND       PRES   REMARKS
BRADFORD       CLOUDY    56  55  97 E12       30.16R
DUBOIS         LGT RAIN  57  53  86 E10G21    30.12R
CLEARFIELD     LGT RAIN  57  56  96 E9        30.16R
JOHNSTOWN      LGT RAIN  57  56  96 E12G23    30.09R
ALTOONA        LGT RAIN  56  56 100 NE10      30.12S
STATE COLLEGE  RAIN      56  55  95 NE8       30.17R
WILLIAMSPORT   LGT RAIN  57  56  96 E7        30.21R
SELINSGROVE    LGT RAIN  58  56  93 NE8       30.18S
FT INDIANTOWN  NOT AVBL
CAPITAL CITY   LGT RAIN  59  56  89 E13       30.12F
HARRISBURG     LGT RAIN  59  58  96 E15G25    30.11F
YORK           LGT RAIN  60  59  96 E14       30.10F
$$

PAZ038>040-043-044-047-048-054-055-060>062-067>071-291000-
EASTERN PENNSYLVANIA

CITY           SKY/WX    TMP DP  RH WIND       PRES   REMARKS
SCRANTON       RAIN      55  52  89 E9G21     30.24R FOG
MOUNT POCONO   LGT RAIN  50  49  96 E15G23    30.27R FOG
ALLENTOWN      LGT RAIN  57  54  89 NE13      30.25R
QUAKERTOWN*    CLOUDY    55  55 100 E7G16     30.25R
READING        LGT RAIN  58  54  86 NE7G16    30.20R
LANCASTER      RAIN      58  58 100 E17G25    30.16S
COATESVILLE    LGT RAIN  57  57 100 E10G21    30.19S
POTTSTOWN      LGT RAIN  56  55  97 NE12G21   30.22S
BLUE BELL      CLOUDY    55  55 100 NE10      30.21S
DOYLESTOWN     LGT RAIN  58  56  93 NE7       30.23S
WILLOW GROVE   NOT AVBL
NORTH PHILA    RAIN      61  59  93 NE18      30.23R
PHILADELPHIA   LGT RAIN  61  59  93 NE15      30.19F
$$




USA.gov is the U.S. government's official web portal to all federal, state and local government web resources and services.